This demonstration page uses our WeatherBlox Daily Observations layout. Learn more.

Left ArrowRight Arrow

40.92501, -98.34201

Hourly Observations for May 26, 2018

Temp ( °F °C ) Dew Point ( °F °C ) Humidity (%) Winds ( mph kmh ) Pressure ( in mb ) Visibility ( mi km ) Precip ( " mm )
12:53 am 00:53 Clear 74 23.3 61 16.1 64 64 W 5 7 29.77 1008 10 16 0.00 0.00
1:53 am 01:53 Clear 70 21.1 61 16.1 73 73 Calm 29.77 1008 10 16 0.00 0.00
2:53 am 02:53 Clear 68 20 61 16.1 78 78 Calm 29.77 1008 10 16 0.00 0.00
3:53 am 03:53 Clear 67 19.4 62 16.7 84 84 Calm 29.76 1008 10 16 0.00 0.00
4:53 am 04:53 Clear 65 18.3 60 15.6 84 84 W 5 7 29.77 1008 10 16 0.00 0.00
5:53 am 05:53 Clear 64 17.8 59 15 84 84 W 8 13 29.77 1008 10 16 0.00 0.00
6:53 am 06:53 Sunny 65 18.3 60 15.6 84 84 W 6 9 29.78 1009 10 16 0.00 0.00
7:53 am 07:53 Sunny 71 21.7 62 16.7 73 73 WNW 6 9 29.80 1009 10 16 0.00 0.00
8:53 am 08:53 Sunny 78 25.6 64 17.8 62 62 Calm 29.80 1009 10 16 0.00 0.00
9:53 am 09:53 Sunny 85 29.4 63 17.2 48 48 Calm 29.81 1009 10 16 0.00 0.00
10:53 am 10:53 Sunny 91 32.8 64 17.8 41 41 WNW 6 9 29.79 1009 10 16 0.00 0.00
11:53 am 11:53 Sunny 93 33.9 66 18.9 41 41 W 8 13 29.78 1008 10 16 0.00 0.00
12:53 pm 12:53 Sunny 95 35 64 17.8 36 36 W 7 11 29.77 1008 10 16 0.00 0.00
1:53 pm 13:53 Sunny 97 36.1 64 17.8 34 34 W 8 13 29.76 1008 10 16 0.00 0.00
2:53 pm 14:53 Mostly Sunny 98 36.7 60 15.6 28 28 SW 8 13 29.74 1007 10 16 0.00 0.00
3:53 pm 15:53 Sunny 99 37.2 56 13.3 24 24 SSW 10 17 29.73 1007 10 16 0.00 0.00
4:53 pm 16:53 Sunny 98 36.7 57 13.9 25 25 S 7 11 29.72 1007 10 16 0.00 0.00
5:53 pm 17:53 Sunny 98 36.7 55 12.8 24 24 SSW 9 15 29.71 1006 10 16 0.00 0.00
6:53 pm 18:53 Sunny 96 35.6 55 12.8 25 25 SW 9 15 29.71 1006 10 16 0.00 0.00
7:53 pm 19:53 Sunny 92 33.3 58 14.4 32 32 SSW 7 11 29.72 1006 10 16 0.00 0.00
8:53 pm 20:53 Sunny 86 30 57 13.9 37 37 SSW 7 11 29.73 1007 10 16 0.00 0.00
9:53 pm 21:53 Clear 82 27.8 58 14.4 44 44 S 8 13 29.74 1007 10 16 0.00 0.00
10:53 pm 22:53 Clear 82 27.8 58 14.4 44 44 SSW 10 17 29.75 1007 10 16 0.00 0.00
11:53 pm 23:53 Clear 82 27.8 58 14.4 44 44 SSW 13 20 29.75 1008 10 16 0.00 0.00

Powered by AerisWeather